Temp
14 14 14 14 14 14 14 14 14 14 14 15 15 15 15 15 15 15 15 15 15 15 15 15 16 16 16 16 16 16 17 17 17 17 17 17 17 17 17 17 17 17 17 17 17 17 16 16 16 15 15 15 15 15 15 15 15 15 15 15 14 14 14 13 13 13 13 13 13
13 13 13 14 14 14 14 14 14 14 14 14 14 14 14 14 14 15 15 15 15 15 15 15 15 15 15 15 16 16 16 16 16 16 16 17 17 17 17 17 17 17 17 17 17 17 16 16 16 15 15 15 14 15 15 15 15 15 15 14 14 14 14 13 13 13 13 13 13
13 13 13 13 13 13 14 14 14 14 14 14 14 14 14 14 14 14 14 14 14 14 14 15 15 15 15 15 15 15 15 15 16 16 16 16 16 16 17 17 17 17 17 17 17 17 16 16 16 15 14 14 14 15 15 15 15 15 15 14 14 14 14 14 13 13 13 13 13
13 13 13 13 13 13 13 13 13 13 13 13 14 14 14 14 14 14 14 14 14 14 14 14 14 14 15 15 15 15 15 15 15 15 16 16 16 16 16 16 16 17 17 17 17 17 16 16 15 15 14 14 14 14 15 15 15 15 14 14 14 14 13 13 13 13 13 13 13
12 13 13 13 13 13 13 13 13 13 13 13 13 13 13 13 13 13 14 14 14 14 14 14 14 14 14 15 15 15 15 15 15 15 16 16 16 16 16 16 16 16 17 17 17 16 16 16 15 14 14 14 14 14 14 15 14 14 14 14 14 13 13 13 13 13 13 13 13
12 12 12 13 13 13 13 13 13 13 13 13 13 13 13 13 13 13 13 14 14 14 14 14 14 14 14 14 15 15 15 15 15 15 16 16 16 16 16 16 16 16 17 17 17 16 16 15 14 14 14 14 14 14 14 14 14 14 14 14 13 13 13 13 13 13 13 13 13
12 12 12 12 12 12 13 13 13 13 13 13 13 13 13 13 13 13 13 13 13 13 14 14 14 14 14 14 14 15 15 15 15 15 16 16 16 16 16 16 16 16 17 17 16 16 15 14 14 14 14 14 14 14 14 14 14 14 14 14 13 13 13 13 13 13 13 13 12
12 12 12 12 12 12 12 12 12 12 13 13 13 13 13 13 13 13 13 13 13 13 13 14 14 14 14 14 14 14 15 15 15 15 15 16 16 16 16 16 16 16 16 16 16 15 14 14 14 14 14 14 14 14 14 14 14 14 14 13 13 13 13 13 12 12 12 12 12
11 11 11 11 12 12 12 12 12 12 12 12 12 12 12 12 12 12 13 13 13 13 13 13 13 13 14 14 14 14 14 14 14 15 15 15 15 15 15 15 16 16 15 15 14 14 13 14 14 14 14 14 14 14 14 14 14 13 13 13 13 13 13 12 12 12 12 12 12
11 11 11 11 11 11 11 12 12 12 12 12 12 12 12 12 12 12 12 12 12 12 12 13 13 13 13 13 13 13 13 13 13 13 13 14 14 14 14 14 14 14 14 13 13 13 13 14 14 14 14 14 14 14 14 13 13 13 13 13 13 13 12 12 12 12 12 12 11
10 10 10 10 11 11 11 11 11 11 11 11 11 11 11 11 11 11 11 12 12 12 12 12 12 12 12 12 12 12 12 12 12 12 11 11 11 12 12 12 12 12 12 12 12 13 13 13 14 14 14 13 13 13 13 13 13 13 13 12 12 12 12 12 11 11 11 11 11
10 10 10 10 10 10 10 10 10 10 10 10 10 10 10 10 10 11 11 11 11 11 11 11 11 11 11 11 11 11 11 10 10 10 10 10 10 10 11 11 11 11 12 12 12 13 13 13 13 13 13 13 13 12 12 12 12 12 12 12 12 11 11 11 11 10 10 10 10
9 9 9 9 10 10 10 10 10 10 10 10 10 10 10 10 10 10 10 10 10 10 10 10 10 10 10 10 10 10 10 10 10 10 10 10 10 10 11 11 11 11 12 12 12 13 13 13 13 13 13 12 12 12 12 12 12 12 12 11 11 10 10 10 10 10 9 9 9
9 9 9 9 9 9 9 9 9 9 9 9 9 9 9 9 9 9 9 9 9 9 9 10 10 10 9 9 9 10 10 10 10 10 10 10 10 11 11 11 11 11 12 12 12 12 12 12 12 12 12 12 11 11 11 11 12 12 11 11 11 10 10 9 9 9 9 9 9
9 9 9 9 9 9 9 9 9 9 9 9 9 9 9 9 9 9 9 8 8 9 9 9 9 9 9 9 9 9 10 10 10 10 10 10 10 10 11 11 11 11 11 11 11 11 12 12 11 11 11 11 11 11 10 11 11 11 11 10 10 10 9 9 9 9 8 8 8
8 8 8 8 8 8 8 8 9 9 9 9 8 8 8 8 8 8 8 8 8 8 8 8 9 9 8 8 9 9 9 9 9 9 10 10 10 10 10 10 10 11 11 11 11 11 11 11 11 10 10 10 10 10 10 10 10 10 10 9 9 9 9 9 9 9 8 8 8
8 8 8 8 8 8 8 8 8 8 8 8 8 8 8 8 8 8 8 8 8 8 8 8 8 8 8 8 9 9 9 9 9 9 9 9 9 9 9 9 10 10 10 10 10 10 10 10 10 10 10 9 9 9 9 10 10 9 9 9 8 8 8 9 9 8 8 8 7
7 8 8 8 8 8 8 8 8 8 9 8 8 8 8 8 8 8 8 8 8 8 8 8 8 8 8 8 8 8 8 8 8 8 8 9 9 9 9 9 9 9 9 9 9 9 9 9 9 9 9 9 9 9 9 9 9 9 9 8 8 8 8 8 8 7 7 7 7
7 8 8 8 8 8 8 8 8 8 8 8 8 8 8 7 7 7 7 7 7 7 8 8 8 8 8 8 8 8 8 8 8 8 8 8 8 8 8 8 8 8 8 8 8 8 8 8 8 8 8 8 8 8 8 9 9 9 8 8 7 7 7 6 6 6 6 6 6
7 8 8 8 8 8 8 8 8 8 8 8 8 8 7 7 7 7 7 7 7 7 7 7 8 8 8 8 8 7 7 7 7 7 7 7 7 7 7 7 7 8 8 8 8 8 8 8 8 8 8 8 8 8 8 8 8 7 7 6 6 6 5 5 5 5 5 6 6
7 7 8 8 8 8 8 8 7 7 7 8 7 7 7 7 7 7 7 7 7 7 7 7 7 7 7 7 7 7 7 7 7 7 7 7 7 7 7 7 7 7 7 8 8 8 8 8 8 8 8 8 7 7 7 7 6 6 5 5 5 4 4 4 4 4 5 5 5
7 7 7 7 8 8 8 7 7 7 7 7 7 7 7 7 7 7 7 7 7 7 7 7 7 7 7 7 7 7 7 7 7 7 7 7 7 7 7 7 7 7 7 7 7 7 7 7 7 7 7 7 7 6 6 6 5 5 4 4 4 4 4 4 4 4 4 4 4
7 7 7 7 7 7 7 7 7 7 7 7 7 7 7 7 7 7 7 7 7 7 7 7 7 7 7 7 7 7 7 7 7 6 6 6 7 7 7 7 7 7 7 7 7 7 7 7 7 6 6 6 5 5 5 4 4 4 3 3 3 3 3 3 3 3 3 3 3
7 7 7 7 7 7 7 6 6 6 6 7 7 7 7 7 7 7 7 7 7 7 7 6 6 6 6 6 6 6 6 7 7 6 6 6 6 6 6 6 6 6 6 6 6 6 6 6 6 5 5 5 4 4 3 3 3 3 3 2 2 2 2 2 2 2 2 2 2
6 6 6 6 6 6 6 6 6 6 6 6 6 6 6 6 6 6 6 6 6 6 6 6 6 6 6 6 6 6 6 6 6 6 6 6 6 6 6 6 6 5 5 5 5 5 6 6 5 5 4 4 3 3 3 2 2 2 2 2 2 1 1 1 1 1 2 2 1
6 6 6 6 6 6 6 5 5 5 5 6 6 5 5 5 6 6 6 6 6 6 6 6 5 5 5 5 5 5 5 5 5 5 5 5 5 5 5 5 5 4 4 4 4 4 4 4 4 4 3 3 3 2 2 1 1 1 1 1 1 1 1 1 1 1 1 1 1
6 6 5 5 5 5 5 5 5 5 5 5 5 5 5 5 5 5 5 5 5 5 5 5 5 5 4 4 4 4 4 4 4 4 4 4 4 4 4 4 4 3 3 3 3 3 3 3 3 3 3 3 2 2 1 1 1 1 1 1 1 1 1 1 1 1 1 1 1
5 5 5 5 5 5 5 5 5 5 5 4 4 5 5 5 5 5 5 5 5 5 4 4 4 4 4 4 4 4 4 4 3 3 3 3 3 3 3 3 3 2 2 2 2 2 2 2 2 2 3 3 2 2 2 1 1 1 1 1 1 2 2 2 2 2 2 1 1
5 5 5 5 4 4 4 4 4 4 4 4 4 4 4 4 4 4 4 4 4 4 4 4 3 3 3 3 3 3 3 3 3 2 2 2 2 2 2 2 2 2 2 2 2 2 2 2 2 2 2 3 2 2 2 1 1 1 1 1 2 2 2 2 2 2 1 1 0
5 5 4 4 4 4 4 4 4 4 4 4 4 4 4 4 4 4 4 3 3 3 3 3 3 3 3 2 2 2 2 2 2 2 2 2 2 2 2 2 2 2 1 1 1 1 1 1 1 2 2 3 3 2 2 2 1 1 2 2 2 2 2 2 1 1 1 1 0
4 4 4 4 4 4 4 4 4 4 4 4 4 4 4 3 3 3 3 3 3 3 3 3 2 2 2 2 2 2 2 2 2 2 2 2 2 2 2 2 1 1 1 1 1 1 1 2 1 2 2 3 3 2 2 2 2 2 2 2 2 2 1 1 1 1 0 0 0
4 4 4 4 4 4 4 4 4 4 4 4 3 3 3 3 3 3 3 3 2 2 2 2 2 2 2 2 2 2 2 2 2 2 2 2 2 1 1 1 1 1 1 1 1 1 1 1 1 1 2 2 2 2 2 2 2 2 2 1 1 1 1 1 1 0 0 1 1
4 4 4 4 4 4 4 4 4 3 3 3 3 3 3 3 3 2 2 2 2 2 2 2 2 2 2 2 2 2 2 2 2 2 2 1 1 1 1 1 1 1 1 1 1 1 1 1 1 1 2 2 2 2 2 2 2 1 1 1 0 0 0 0 0 0 0 1 1
4 4 4 4 4 4 4 3 3 3 3 3 3 3 3 3 2 2 2 2 2 2 2 2 2 2 2 2 2 2 2 2 2 2 2 1 1 1 1 1 1 1 1 1 1 1 0 0 0 1 2 2 2 2 1 1 1 1 0 -0 -0 -0 -0 -0 0 0 0 0 0
4 4 4 4 4 4 3 3 3 3 3 3 3 3 3 2 2 2 2 2 2 2 2 2 2 2 2 2 2 2 2 2 2 1 1 1 1 1 1 1 1 1 1 1 0 0 -0 -0 0 1 1 1 1 1 1 1 0 0 -0 -0 -1 -0 -0 -0 0 0 0 0 -0
4 4 4 4 4 4 3 3 3 3 3 3 3 3 2 2 2 2 2 2 2 2 2 2 2 2 1 1 2 2 2 1 1 1 1 1 1 1 1 1 1 1 1 0 0 -0 -0 -0 0 1 1 1 1 1 0 0 -0 -0 -1 -1 -1 -0 -0 -0 -0 -0 -0 -0 -1
4 4 4 4 4 3 3 3 3 3 3 3 3 2 2 2 2 2 2 2 2 2 2 1 1 1 1 1 1 1 1 1 1 1 1 1 0 0 0 1 1 0 0 0 -0 -0 -0 0 1 1 1 1 1 0 -0 -0 -0 -1 -1 -1 -1 -0 -0 -0 -0 -0 -0 -1 -1
4 4 4 4 3 3 3 3 3 3 3 2 2 2 2 2 2 1 2 2 2 1 1 1 1 1 1 1 1 1 1 1 1 1 1 0 0 0 0 0 0 0 -0 -0 -1 -1 -0 0 0 1 1 1 0 -0 -0 -0 -1 -1 -1 -1 -1 -1 -1 -1 -1 -1 -1 -1 -1
4 3 3 3 3 3 3 3 3 3 2 2 2 2 1 1 1 1 1 1 2 1 1 1 1 1 1 1 1 1 0 0 0 0 0 0 -0 -0 -0 -0 -0 -0 -0 -1 -1 -0 -0 -0 0 0 0 0 0 -0 -0 -0 -1 -1 -1 -1 -1 -1 -1 -1 -1 -1 -1 -1 -1
3 3 3 3 3 3 3 3 2 2 2 2 2 1 1 1 1 1 1 1 1 1 1 1 1 1 1 1 1 0 0 0 0 -0 -0 -0 -0 -0 -1 -1 -1 -1 -1 -1 -1 -1 -0 -0 -0 -0 -0 -0 -0 -0 -0 -0 -1 -1 -1 -1 -1 -1 -1 -1 -1 -1 -1 -1 -1
3 3 3 3 3 3 3 2 2 2 2 2 2 1 1 1 1 1 1 1 1 1 1 1 1 1 1 1 1 0 0 0 -0 -0 -0 -0 -1 -1 -1 -1 -1 -1 -1 -1 -1 -1 -1 -1 -1 -1 -1 -1 -1 -0 -0 -0 -1 -1 -1 -1 -1 -1 -1 -1 -1 -1 -1 -1 -1
Height
813 813 813 814 814 814 815 815 815 815 815 815 815 815 815 815 815 815 815 815 815 815 815 815 815 815 815 815 815 815 815 814 814 814 814 814 814 814 814 814 814 814 814 814 814 814 815 815 815 815 815 816 816 817 817 818 819 819 820 820 820 821 821 822 823 824 824 823 823
812 812 812 813 813 813 813 814 814 814 814 814 814 814 814 814 814 814 814 814 814 814 814 813 813 813 813 813 813 813 813 813 812 812 812 812 812 812 812 812 812 812 812 812 813 813 813 813 813 813 814 814 815 815 816 816 817 818 818 819 819 820 820 821 822 822 822 822 822
811 811 811 811 812 812 812 812 812 812 812 812 812 812 812 812 812 812 812 812 812 812 812 812 812 812 812 812 812 812 811 811 811 811 811 811 811 811 811 811 811 811 811 811 811 811 811 811 811 812 812 812 813 814 814 815 816 816 816 817 817 818 819 820 820 821 821 821 821
810 810 810 810 810 811 811 811 811 811 811 811 811 811 811 811 811 811 811 811 811 811 811 811 811 811 811 811 811 810 810 810 810 809 809 809 809 809 809 809 809 809 809 809 809 809 809 810 810 810 811 811 811 812 813 814 814 815 815 815 816 817 817 818 819 820 820 820 820
809 809 809 809 809 809 809 809 809 810 810 810 810 810 810 810 810 810 810 810 810 810 810 810 810 809 809 809 809 809 809 808 808 808 807 807 807 807 807 807 807 807 807 808 808 808 808 808 808 808 809 810 810 811 811 812 813 813 813 814 814 815 816 816 817 818 818 819 819
808 808 808 807 807 807 807 807 808 808 808 808 808 808 808 808 808 808 808 808 808 808 808 808 808 808 808 807 807 807 807 806 806 806 806 805 805 805 805 805 805 806 806 806 806 806 806 806 807 807 808 808 809 810 810 811 811 811 812 812 813 814 814 815 816 816 817 817 818
807 807 806 806 806 806 806 806 806 806 806 806 807 807 807 806 807 807 807 806 806 806 806 806 806 806 806 806 806 805 805 805 804 804 804 803 803 803 803 803 803 804 804 804 804 804 805 805 806 806 806 807 808 808 809 809 809 810 810 811 811 812 813 814 815 815 816 816 817
806 806 806 805 805 805 805 805 805 805 805 805 805 805 805 805 805 805 805 805 805 805 805 805 805 805 804 804 804 803 803 803 802 802 802 802 801 801 801 801 801 802 802 802 803 803 804 804 805 805 805 806 806 806 807 807 808 808 809 810 811 811 812 813 814 814 815 816 816
805 805 805 804 804 804 804 804 804 804 804 804 804 804 804 804 804 804 804 804 804 804 804 803 803 803 803 802 802 802 801 801 801 801 800 800 800 800 800 800 800 800 800 801 801 802 802 803 803 803 804 804 805 805 806 806 807 807 808 809 810 810 811 812 813 814 814 815 815
804 804 804 804 803 803 803 802 802 803 803 803 803 803 803 803 803 803 803 802 802 802 802 802 802 801 801 801 801 800 800 800 799 799 799 798 798 798 798 798 798 799 799 800 800 801 801 801 802 802 803 803 804 804 805 805 806 807 807 808 809 810 810 811 812 813 813 814 815
803 803 803 803 802 802 802 801 801 801 801 801 801 802 802 802 802 801 801 801 801 801 801 801 801 801 800 800 799 799 799 798 798 798 798 798 797 797 797 797 797 798 798 799 799 800 800 801 801 801 802 802 803 803 804 804 805 806 807 808 808 809 810 810 811 811 812 813 814
802 802 802 802 802 801 801 801 801 801 801 801 801 801 801 801 801 801 801 801 801 800 800 800 800 799 799 799 798 798 798 798 798 797 797 797 797 797 797 797 797 797 798 798 798 799 799 800 800 801 801 801 802 802 803 804 804 805 806 807 807 808 809 809 810 811 811 812 813
802 802 802 801 801 801 800 800 800 800 800 800 800 800 800 800 800 800 800 800 800 799 799 799 799 799 798 798 798 798 798 797 797 797 797 796 796 796 796 796 797 797 797 797 798 798 799 799 799 800 800 801 801 802 803 803 804 804 805 806 806 807 808 809 809 810 811 812 812
801 801 801 801 801 800 800 800 799 799 799 799 799 799 799 799 799 799 799 799 799 799 798 798 798 798 798 798 797 797 797 797 797 796 796 796 796 796 796 796 796 796 797 797 797 798 798 798 799 799 800 800 801 801 802 803 803 804 805 805 806 807 808 808 809 810 811 811 812
801 801 801 800 800 800 799 799 799 799 799 799 799 799 799 799 798 798 798 798 798 798 798 798 798 797 797 797 797 797 797 796 796 796 796 796 796 796 796 796 796 796 796 796 797 797 797 798 798 799 799 800 800 801 802 802 803 804 805 805 806 807 808 808 809 810 811 811 812
800 800 800 800 800 799 799 799 798 798 798 798 798 798 798 798 798 798 798 798 798 798 797 797 797 797 797 797 796 796 796 796 796 796 796 795 795 795 796 796 796 796 796 796 796 797 797 798 798 799 799 800 800 801 801 802 803 803 805 806 806 807 808 808 809 810 811 812 812
800 800 800 799 799 799 799 798 798 798 798 798 798 798 797 797 797 797 797 797 797 797 797 797 797 797 796 796 796 796 796 796 796 795 795 795 795 795 795 795 796 796 796 796 796 797 797 798 798 799 799 800 800 801 801 802 803 804 805 806 807 808 808 808 809 810 811 811 812
799 799 799 799 799 799 798 798 798 798 798 797 797 797 797 797 797 797 797 797 797 797 797 797 796 796 796 796 796 796 796 795 795 795 795 795 795 795 795 795 795 796 796 796 796 797 797 798 798 799 800 800 801 801 802 803 803 805 806 807 808 808 808 808 809 810 810 811 811
799 799 799 799 799 798 798 798 798 797 797 797 797 797 797 797 796 796 796 796 796 796 796 796 796 796 796 796 796 796 796 796 795 795 795 795 795 795 795 795 796 796 796 796 797 797 797 798 799 799 800 801 802 802 803 803 804 805 806 807 808 808 808 809 809 810 810 810 811
799 798 798 798 798 798 798 797 797 797 797 797 797 797 796 796 796 796 796 796 796 796 796 796 796 796 796 796 796 796 796 796 796 796 796 796 796 796 796 796 796 796 797 797 797 798 799 799 800 801 801 802 802 803 803 804 804 805 806 807 808 808 808 809 809 810 810 810 811
798 798 798 798 798 798 797 797 797 797 797 797 797 796 796 796 796 796 796 796 796 796 796 796 796 796 796 796 796 796 796 796 796 796 796 796 796 796 796 797 797 797 798 798 799 799 800 800 801 801 802 803 803 803 804 804 805 805 806 807 807 808 809 809 810 810 811 811 811
797 797 798 798 798 797 797 797 797 797 797 797 797 796 796 796 796 796 796 796 796 796 797 797 796 796 796 796 796 796 796 796 797 797 797 797 797 797 797 798 798 798 798 799 799 800 800 801 801 802 802 803 803 804 804 805 805 806 806 807 808 809 809 810 811 811 811 811 812
797 797 797 797 797 797 797 797 797 797 797 797 797 797 796 796 796 796 796 796 797 797 797 797 797 797 797 797 797 797 797 797 797 797 798 798 798 798 798 799 799 799 799 799 800 800 801 801 801 802 802 803 803 804 804 805 806 806 807 807 808 809 810 811 811 812 812 812 813
797 797 797 797 797 797 797 797 797 797 797 797 797 797 797 797 797 797 797 797 797 797 797 797 797 797 797 798 798 798 798 797 798 798 798 798 798 798 799 799 799 800 800 800 800 800 801 801 801 802 802 803 803 804 805 805 806 806 807 808 809 810 811 811 812 812 813 813 814
797 797 797 797 797 797 797 797 797 797 797 797 797 797 797 797 797 797 797 797 797 797 798 798 798 798 798 798 798 798 798 798 798 798 798 798 799 799 799 799 800 800 800 801 801 801 801 801 801 802 802 803 804 804 805 806 806 807 808 808 809 810 811 812 812 813 814 814 815
796 797 797 797 797 797 797 797 797 797 797 797 797 797 797 797 797 797 797 797 798 798 798 798 798 798 798 798 798 798 798 798 799 799 799 799 799 799 800 800 800 800 801 801 801 801 802 802 802 802 803 803 804 805 806 806 807 808 809 809 810 811 811 812 813 813 814 814 815
796 796 796 796 797 797 797 797 797 797 797 797 797 797 797 797 797 797 798 798 798 798 798 798 798 798 799 799 799 799 799 799 799 799 799 799 799 800 800 800 801 801 801 802 802 802 802 803 803 803 804 804 805 806 806 807 808 809 809 810 811 811 811 812 813 813 814 815 816
796 796 796 796 796 796 796 797 797 797 797 797 797 797 797 797 797 798 798 798 798 798 798 798 799 799 799 799 799 799 799 800 800 800 800 800 800 800 801 801 801 802 802 802 803 803 803 803 804 804 805 805 806 806 807 807 808 809 810 811 811 811 812 812 813 814 815 815 816
796 796 796 796 796 796 796 797 797 797 797 797 797 798 798 798 798 798 798 798 798 798 798 799 799 799 799 800 800 800 800 800 801 801 801 801 801 801 801 802 802 803 803 803 804 804 804 804 805 805 805 806 806 807 808 808 809 810 810 811 811 812 812 813 814 814 815 816 817
796 796 796 796 796 796 796 797 797 797 797 798 798 798 798 798 798 798 799 799 799 799 799 799 799 800 800 800 800 801 801 801 801 801 801 801 801 802 802 803 803 803 804 804 804 804 805 805 805 806 806 807 807 807 808 809 810 810 811 811 812 812 813 814 814 815 816 816 817
796 796 796 796 796 796 797 797 797 797 798 798 798 798 798 799 799 799 799 799 799 799 800 800 800 800 801 801 801 801 801 802 802 802 802 802 802 803 803 803 804 804 805 805 805 805 805 806 806 806 807 807 808 808 809 810 810 811 811 812 812 813 814 814 815 816 816 817 818
795 796 796 796 796 796 797 797 797 798 798 798 798 799 799 799 799 799 800 800 800 800 800 800 800 801 801 801 801 802 802 802 802 802 803 803 803 803 804 804 805 805 805 806 806 806 806 806 807 807 808 808 808 809 809 810 811 811 812 812 813 814 814 815 816 816 817 817 818
795 795 796 796 796 796 797 797 797 798 798 798 799 799 799 799 800 800 800 800 801 801 801 801 801 801 801 802 802 802 802 803 803 803 803 803 804 804 805 805 806 806 806 806 806 806 807 807 807 808 808 809 809 810 810 811 811 812 812 813 814 815 815 816 816 817 817 818 818
795 795 796 796 796 796 797 797 797 798 798 798 799 799 799 800 800 800 801 801 801 801 801 801 801 802 802 802 803 803 803 803 803 804 804 804 805 805 805 806 806 806 807 807 807 808 808 808 808 809 809 810 810 811 811 811 812 812 813 814 815 815 816 816 816 817 817 818 819
795 795 795 796 796 796 797 797 797 798 798 798 799 799 799 800 800 800 801 801 801 801 801 802 802 802 803 803 803 803 804 804 804 804 805 805 805 806 806 806 807 807 808 808 808 809 809 809 809 809 810 810 811 811 812 812 813 813 814 814 815 816 816 816 817 817 818 818 819
795 795 795 796 796 796 796 797 797 798 798 799 799 799 800 800 800 801 801 801 801 801 802 802 803 803 803 804 804 804 804 804 805 805 805 806 806 806 807 807 808 808 809 809 809 809 810 810 810 810 811 811 811 812 812 813 813 814 815 815 816 816 816 817 817 817 818 818 819
795 795 795 795 796 796 796 797 797 798 798 798 799 799 800 800 800 801 801 801 801 802 802 803 803 803 804 804 804 805 805 805 805 806 806 806 807 807 807 808 808 809 809 810 810 810 810 811 811 811 811 812 812 812 813 814 814 815 815 816 816 816 817 817 817 818 818 819 819
794 795 795 795 796 796 796 797 797 798 798 798 799 799 800 800 800 801 801 801 802 802 803 803 803 804 804 804 805 805 805 806 806 806 806 807 807 808 808 808 809 809 810 810 811 811 811 811 812 812 812 812 813 813 814 814 815 815 816 816 816 816 817 817 818 818 818 819 819
794 794 795 795 795 796 796 796 797 797 798 798 799 799 800 800 801 801 801 801 802 802 803 803 804 804 804 805 805 805 806 806 806 807 807 807 808 808 809 809 809 810 810 811 811 811 811 812 812 813 813 813 813 814 814 815 815 816 816 816 816 817 817 818 818 818 819 819 819
794 794 795 795 795 796 796 796 797 797 798 798 799 799 800 800 801 801 801 802 802 803 803 803 804 804 805 805 805 806 806 806 807 807 807 808 808 809 809 809 810 810 811 811 811 812 812 812 813 813 813 814 814 814 815 815 815 816 816 816 817 817 817 818 818 819 819 819 820
794 794 794 795 795 796 796 796 797 797 798 798 799 799 800 800 801 801 801 802 802 803 803 804 804 805 805 805 806 806 806 807 807 807 808 808 809 809 809 810 810 811 811 811 812 812 812 813 813 813 814 814 814 815 815 815 816 816 816 817 817 817 818 818 818 819 819 819 820
Wind_Speed
6 6 7 7 7 8 8 8 9 9 10 10 10 11 11 12 12 12 13 13 13 14 14 15 15 16 17 17 18 19 20 20 21 22 22 23 23 24 24 23 23 23 22 22 21 21 22 22 23 24 25 26 26 27 27 27 27 28 28 26 25 23 21 19 19 19 19 18 18
7 7 8 8 9 9 9 10 10 10 10 11 11 11 11 12 12 12 12 12 12 13 13 13 14 14 14 15 16 16 17 18 19 20 21 22 22 23 23 23 23 23 22 22 21 21 21 22 22 23 24 25 26 26 26 26 26 26 25 24 22 21 20 18 19 19 19 18 17
8 8 9 9 10 10 11 11 11 11 11 11 12 12 12 12 12 12 12 12 12 13 13 13 13 13 14 14 14 15 16 16 17 18 19 20 21 22 22 23 23 22 22 21 21 21 21 21 22 22 23 24 25 25 25 25 26 26 25 23 22 20 19 19 19 19 18 17 16
8 9 9 10 11 11 12 12 13 13 13 13 13 14 14 14 14 14 13 13 13 13 13 13 13 14 14 14 14 15 15 16 16 17 18 19 20 21 21 22 22 22 21 21 21 20 21 21 21 21 22 23 23 24 24 25 26 26 25 23 21 19 18 18 18 17 17 16 16
7 8 9 10 11 11 12 13 13 14 14 15 15 15 15 15 15 15 15 15 15 14 14 14 14 15 15 15 15 15 15 16 16 17 17 18 19 20 20 21 21 21 21 20 20 20 20 19 19 19 19 20 21 22 23 24 25 25 24 22 19 18 17 17 16 16 16 16 16
7 8 9 9 10 11 12 12 13 14 14 15 15 15 16 16 16 16 16 16 15 15 15 15 15 16 16 16 16 16 16 16 16 17 17 18 18 19 19 20 21 21 21 20 20 19 18 16 15 15 16 18 19 21 22 23 24 23 22 20 19 17 16 16 16 16 16 16 16
8 8 8 9 10 10 11 11 12 13 13 14 14 15 15 15 15 15 15 15 15 15 15 15 16 16 16 16 17 17 17 17 17 17 17 18 18 19 19 19 20 20 20 20 19 17 15 13 13 14 16 18 20 21 22 23 23 22 21 19 18 16 15 15 16 16 15 16 16
8 8 9 9 9 9 10 10 11 11 11 12 12 13 13 13 14 14 14 14 14 15 15 15 15 15 16 16 16 17 17 17 17 18 18 18 19 19 19 19 19 19 19 19 17 14 12 12 13 15 17 19 20 22 22 23 22 21 20 18 16 15 15 15 15 15 15 15 15
8 8 8 8 9 9 9 9 9 10 10 10 11 11 11 11 12 12 12 13 13 14 14 14 15 15 15 16 16 16 17 17 17 18 18 18 19 19 19 19 19 19 18 16 14 11 11 13 15 17 19 20 21 21 22 22 21 20 18 16 15 15 15 15 15 14 14 15 16
7 7 8 8 8 8 8 8 8 8 9 9 9 10 10 10 10 11 12 12 12 13 13 13 14 14 14 14 15 15 15 15 15 15 15 16 16 16 16 16 16 15 14 12 11 11 13 15 17 18 19 20 21 21 21 21 20 18 16 15 14 14 14 14 14 14 14 15 16
7 7 8 8 8 7 7 7 7 7 8 8 8 8 9 9 9 10 11 11 11 11 11 12 12 12 12 12 11 11 11 11 11 11 11 11 11 11 11 11 11 10 9 9 10 13 15 16 18 19 19 20 20 20 20 20 19 16 14 14 14 14 14 14 14 14 15 15 17
6 7 7 7 7 6 6 5 5 6 6 6 7 7 7 8 9 9 9 9 9 9 9 9 9 9 8 7 6 6 6 6 7 7 7 7 7 7 6 6 6 7 8 9 12 14 16 17 18 19 19 19 19 18 18 18 17 15 14 14 14 15 16 16 16 16 16 16 17
6 6 6 6 5 5 4 4 4 4 4 5 5 6 6 7 8 8 8 8 8 8 8 8 7 5 5 4 3 3 4 4 5 5 5 5 5 5 5 6 6 7 9 11 13 15 17 18 18 18 18 18 18 18 17 17 15 14 14 15 15 16 18 18 18 18 17 17 17
6 6 5 5 4 3 3 3 3 4 4 4 5 5 6 6 7 7 7 8 7 7 7 6 4 3 2 2 2 3 3 4 4 4 4 5 6 6 7 8 8 9 10 12 14 16 16 17 17 17 18 18 18 17 17 16 15 14 14 15 17 18 19 19 18 18 17 16 15
6 5 4 4 3 3 3 3 3 4 4 4 5 5 6 6 6 6 6 6 6 6 6 5 3 2 2 2 3 3 4 5 5 5 6 6 7 8 8 9 10 11 12 13 15 15 16 16 16 16 17 17 18 18 17 16 15 14 15 16 17 18 19 18 16 15 14 14 13
6 5 4 4 4 4 4 4 4 4 4 4 4 5 5 5 5 5 4 4 4 5 5 4 2 2 3 3 3 4 5 6 6 6 6 7 7 8 9 10 10 11 12 13 14 14 14 14 15 15 16 17 18 18 17 16 15 15 16 17 17 17 17 15 14 13 12 11 11
6 5 4 4 5 5 5 5 4 4 4 4 4 5 5 5 4 4 3 3 3 4 4 3 2 3 4 4 4 5 5 6 6 6 6 7 7 8 9 10 10 11 12 12 13 13 13 14 14 15 16 17 17 18 17 16 16 16 16 16 16 16 14 13 12 11 11 11 11
6 5 5 5 6 6 6 5 4 4 3 3 4 4 4 4 3 2 2 2 2 3 2 2 3 3 4 5 5 5 5 6 6 6 6 7 8 8 9 10 11 11 12 12 13 13 14 14 15 16 17 17 17 17 16 15 15 14 14 14 14 13 13 12 11 11 12 12 12
7 6 5 6 6 6 5 5 4 3 3 3 3 3 2 2 2 1 1 1 1 1 2 3 3 4 4 5 5 4 5 5 6 6 7 8 8 9 10 11 11 12 12 13 13 14 15 15 16 16 16 16 16 16 15 15 14 14 13 13 13 13 12 12 12 13 13 13 12
7 7 6 5 5 5 4 3 3 2 2 2 2 1 1 1 1 1 1 1 1 1 1 2 3 3 4 4 4 4 5 5 6 7 8 9 10 10 11 12 12 13 13 13 14 14 15 15 15 15 14 14 15 15 15 14 14 14 14 14 14 14 14 14 14 14 14 13 13
9 8 6 5 4 3 2 2 1 1 2 2 2 2 2 2 2 3 3 3 3 2 2 2 2 2 3 4 4 5 6 6 7 8 9 10 10 11 12 12 13 13 13 13 13 13 13 13 13 12 12 12 13 13 14 14 15 15 15 15 15 15 15 15 15 14 14 13 13
9 8 6 5 4 3 2 2 1 1 2 2 3 3 4 4 4 4 5 5 5 4 3 3 3 3 4 5 6 7 8 9 10 10 10 11 11 11 11 11 12 12 13 13 12 12 12 11 11 11 11 11 12 13 14 15 16 16 16 17 16 16 16 16 15 14 14 13 13
9 8 6 5 4 3 3 2 2 2 3 4 4 4 5 5 6 6 6 6 6 5 4 4 4 5 6 7 8 9 10 11 11 11 11 11 10 10 10 10 10 11 11 11 11 11 11 11 11 12 12 13 13 14 15 15 16 17 18 18 18 18 17 17 16 16 16 15 15
8 7 5 4 4 3 3 3 3 4 5 5 5 5 6 6 6 7 8 8 7 6 6 6 6 7 8 9 9 10 10 11 11 11 10 10 10 9 9 9 9 10 10 10 10 10 10 11 12 13 14 14 15 16 16 17 17 18 19 19 19 19 18 18 18 19 19 18 18
8 6 5 5 4 4 4 4 5 6 7 7 7 7 7 7 7 8 8 8 7 6 6 7 8 8 9 9 10 10 10 10 10 9 9 9 9 9 9 10 10 10 10 10 10 10 10 11 12 14 15 16 17 17 18 18 19 19 19 19 20 20 20 20 20 20 20 21 20
7 6 6 5 5 5 5 6 7 7 8 9 9 9 9 9 9 9 8 8 8 7 7 8 8 9 9 9 10 10 10 9 9 9 9 9 9 10 10 10 11 10 10 10 10 10 10 11 12 14 16 17 18 19 19 19 19 19 19 19 19 20 20 21 20 20 19 20 19
8 7 6 6 6 6 7 7 8 8 9 10 10 11 10 10 10 10 10 9 9 8 8 8 9 10 10 10 10 10 10 10 9 9 9 10 10 10 10 10 10 10 10 9 9 10 10 11 12 14 16 17 19 19 19 19 19 19 18 18 18 19 20 20 20 19 18 18 17
8 7 7 7 8 8 8 8 9 9 10 10 10 10 10 10 10 10 10 10 10 10 10 10 10 11 11 11 12 12 12 11 11 11 11 12 12 12 11 11 11 11 10 9 9 10 10 11 12 14 15 17 18 19 19 19 18 18 18 18 18 18 18 18 18 18 17 17 16
8 8 8 9 9 9 9 9 10 10 9 9 9 9 8 9 9 10 10 11 11 11 12 12 12 13 14 14 14 13 13 13 13 13 13 13 13 13 13 13 12 11 10 10 9 9 10 10 11 13 15 16 17 18 18 18 18 18 17 17 17 17 17 18 17 17 17 16 15
9 9 9 10 10 10 10 10 9 9 8 8 7 7 8 8 9 10 10 11 12 13 14 14 15 16 16 15 14 14 13 13 13 14 14 14 14 14 13 13 13 12 10 10 9 9 9 10 11 12 14 15 16 17 18 18 18 18 17 17 17 17 17 18 17 17 16 15 14
10 10 10 10 10 10 10 9 8 8 7 7 7 7 7 8 9 10 11 12 13 14 15 16 17 17 16 15 14 14 13 13 13 14 14 14 14 14 13 13 13 12 11 10 10 9 10 10 11 13 14 15 16 17 18 18 18 18 18 18 18 18 17 17 16 15 14 13 12
10 11 11 11 10 10 9 9 8 8 8 8 8 8 8 9 10 11 12 14 15 16 17 17 17 17 16 15 14 14 14 14 14 14 14 14 14 14 13 13 13 12 11 10 10 10 11 12 13 14 15 16 17 17 18 18 18 18 18 18 18 17 17 16 15 14 13 12 11
11 11 11 11 10 10 9 9 9 9 9 9 8 8 9 10 12 13 14 15 16 16 17 17 16 16 15 15 15 15 14 14 14 14 14 14 14 13 13 12 12 11 11 11 11 11 12 13 15 16 16 17 17 18 18 19 19 19 19 18 17 17 16 15 14 13 12 11 10
11 11 11 11 10 10 10 10 10 10 10 9 9 9 10 12 13 15 15 15 16 16 16 16 15 14 14 14 15 15 15 15 15 15 14 14 13 13 12 12 11 11 11 12 12 12 13 14 15 16 17 17 18 18 18 19 19 19 18 17 16 15 14 13 13 12 11 10 10
11 11 11 11 10 10 11 11 11 10 10 10 10 10 11 12 14 15 15 15 16 16 16 15 14 13 14 14 15 15 15 15 15 14 14 13 12 12 12 12 11 11 12 12 13 13 14 15 16 17 17 18 18 18 18 18 18 18 17 16 15 14 13 12 12 11 11 10 9
10 10 11 11 11 11 11 11 11 10 10 10 11 11 12 13 14 15 15 15 16 16 15 14 13 13 14 14 15 14 14 14 14 14 13 12 12 12 12 12 12 12 12 12 13 13 14 15 16 17 17 17 17 17 17 17 17 16 15 14 14 13 12 11 11 10 10 10 9
9 10 10 11 11 12 12 11 11 11 11 11 12 13 14 15 15 15 15 15 16 15 14 14 13 14 14 15 15 15 14 13 13 13 12 12 12 13 13 13 13 12 12 12 13 13 14 14 15 15 16 16 16 16 16 16 15 15 14 13 13 12 11 10 10 10 9 9 9
9 9 10 11 12 12 12 11 11 12 12 12 13 14 15 16 16 15 15 15 15 15 14 13 14 14 15 15 15 15 14 13 12 12 12 12 13 13 13 13 13 12 12 12 12 12 13 13 13 13 13 14 15 15 15 15 15 14 14 13 12 11 11 10 9 9 9 9 9
8 9 10 11 12 12 12 12 12 12 13 13 14 15 16 16 16 16 15 15 15 14 14 14 15 15 15 15 15 14 13 13 13 12 12 13 13 14 14 13 13 12 12 12 12 12 12 12 11 11 11 12 13 13 14 14 14 14 13 12 12 11 11 10 10 9 10 10 10
8 9 10 11 11 12 12 12 13 13 14 14 15 16 16 16 16 15 15 15 14 14 14 15 15 15 15 15 15 14 13 13 13 13 13 13 13 14 14 13 13 12 12 11 11 11 11 11 11 10 10 10 11 12 13 14 14 13 13 12 12 11 11 10 10 10 11 11 11
8 9 10 11 11 12 12 13 13 14 14 15 15 16 16 16 16 15 15 15 14 14 14 15 15 14 14 14 13 13 12 12 12 13 13 13 14 14 14 13 13 13 12 11 11 11 11 11 10 10 10 10 11 11 12 13 13 13 12 12 11 11 11 11 11 11 12 12 12
Wind_Direction
228 232 236 238 240 241 244 247 249 250 253 255 257 260 263 265 266 268 269 270 271 272 272 272 271 271 270 270 269 268 267 266 265 263 262 261 259 258 257 256 256 256 257 258 259 259 258 256 254 252 250 249 248 247 246 246 247 246 243 239 236 235 234 233 239 245 248 252 255
240 242 244 246 248 249 251 253 255 257 259 261 262 265 266 268 270 271 272 274 275 276 276 276 275 275 274 274 273 272 271 269 267 265 263 261 260 259 257 256 255 255 255 256 257 258 257 256 253 250 248 247 245 244 244 246 247 243 238 236 235 235 235 236 243 250 254 256 256
248 249 249 250 251 253 255 256 257 259 261 263 265 267 269 270 271 272 273 273 274 274 274 274 274 274 274 274 274 274 273 272 271 268 265 262 260 258 256 255 254 254 254 256 257 258 258 257 254 250 246 244 243 242 243 245 245 241 237 236 237 237 237 241 246 251 254 253 249
256 254 253 253 254 254 255 256 257 259 260 262 264 266 268 269 270 271 272 272 272 271 271 271 272 273 273 274 274 275 275 275 274 272 269 265 262 259 256 255 254 254 254 256 258 259 259 258 255 250 245 243 242 242 243 244 243 240 237 236 236 236 237 241 244 245 244 240 238
263 260 258 257 256 257 257 258 259 260 261 262 263 265 267 268 269 271 272 272 271 271 271 271 272 273 273 274 275 275 276 275 275 274 272 269 265 262 258 256 255 254 255 257 259 260 260 258 255 250 246 243 242 242 243 243 240 236 234 232 229 230 232 235 235 234 231 229 230
272 267 264 262 261 260 260 261 261 261 262 263 264 266 267 268 270 271 272 272 272 272 272 272 272 273 274 274 275 275 275 274 274 273 272 270 268 264 261 258 256 255 255 257 258 259 259 257 253 249 245 242 241 241 241 239 234 231 228 225 223 224 226 227 226 224 224 225 227
279 275 271 268 266 264 263 263 263 263 264 264 265 267 268 269 270 271 272 272 272 272 271 271 272 272 273 274 273 273 272 271 271 270 269 268 267 264 261 258 255 254 255 256 257 258 256 252 246 241 239 237 236 236 235 233 230 226 223 219 219 220 221 222 221 221 222 224 227
282 278 275 272 269 267 266 265 265 265 265 266 266 266 267 268 269 269 269 269 269 269 269 269 269 270 270 271 271 270 269 268 267 267 266 265 264 262 260 258 255 253 253 254 255 254 249 240 235 232 232 231 231 231 231 229 226 222 218 215 216 218 220 223 222 222 223 225 225
283 279 276 272 269 267 266 265 265 265 265 265 265 265 265 265 265 265 264 264 264 265 266 266 267 268 268 268 268 268 267 266 266 265 264 263 262 261 259 257 255 254 253 252 250 243 233 228 227 228 228 229 228 228 228 226 221 217 214 214 216 219 222 225 225 225 225 223 221
284 280 276 273 268 265 263 263 263 263 263 263 263 263 262 261 261 260 259 259 260 262 263 265 266 268 268 268 268 268 268 268 268 268 267 267 266 264 263 261 259 257 255 250 239 228 223 223 224 225 226 227 226 225 223 220 214 211 212 215 217 218 220 222 224 223 221 218 215
285 282 278 274 270 265 263 262 261 260 260 260 260 260 259 258 256 255 255 256 258 260 263 266 269 271 271 271 272 273 276 278 280 281 281 281 280 278 276 273 270 265 258 245 230 223 221 222 222 222 223 223 222 219 215 211 207 208 213 215 214 212 210 211 212 212 210 208 206
289 286 281 277 273 269 265 264 260 258 256 255 255 255 255 254 252 252 253 255 256 258 263 268 272 277 281 286 290 292 295 298 302 302 301 297 296 293 288 280 270 260 248 234 225 221 220 220 220 219 218 216 214 210 205 202 202 206 211 212 206 201 197 194 195 195 196 196 196
291 289 285 280 277 274 270 265 258 250 247 246 247 249 251 252 251 252 252 253 253 255 259 266 272 283 298 310 312 309 304 301 301 301 296 286 279 272 262 252 244 238 231 224 220 218 217 216 216 214 211 207 203 198 196 196 199 203 204 201 197 192 187 183 181 182 184 185 187
291 289 284 279 276 273 269 258 247 241 240 240 244 250 254 255 256 255 255 253 251 252 255 261 266 274 283 287 282 278 277 275 275 273 268 259 251 243 235 230 228 225 221 217 214 213 212 210 210 209 205 199 192 189 189 190 194 197 198 195 191 187 182 177 175 176 177 179 183
286 282 275 268 265 262 256 246 242 241 242 243 251 260 265 264 267 268 267 264 256 252 256 264 265 255 242 239 243 250 253 253 252 249 245 240 235 230 225 221 220 218 215 211 208 206 206 205 204 202 198 192 187 183 183 185 187 189 189 188 186 183 180 176 176 177 179 182 186
276 267 257 251 249 248 245 244 247 249 250 255 270 283 291 293 295 296 295 288 270 264 266 275 273 252 236 225 225 234 242 245 244 240 234 228 223 220 216 213 211 210 208 206 203 200 199 198 197 194 191 186 181 178 178 180 180 180 178 177 177 177 177 177 179 182 186 191 192
262 253 245 245 247 247 247 248 254 257 261 273 293 309 321 333 339 338 323 303 285 279 275 269 257 248 240 230 224 227 233 236 233 228 222 216 211 208 204 202 200 200 200 198 195 192 189 187 186 185 183 179 175 172 172 173 173 172 170 170 171 172 173 176 179 182 185 188 190
249 242 242 248 253 255 255 254 255 259 268 282 302 317 331 349 358 350 320 288 283 277 257 227 224 234 238 232 229 227 224 219 213 207 204 201 198 194 191 188 188 188 188 186 184 180 176 173 173 174 174 171 168 166 166 166 167 168 169 170 170 170 170 171 174 175 177 177 177
235 233 238 247 257 262 260 255 248 246 256 272 289 305 333 5 12 351 280 242 253 256 232 206 209 221 229 227 225 219 211 202 193 187 185 183 181 179 176 173 172 172 172 172 170 167 165 163 163 164 165 164 161 160 161 162 163 166 169 170 169 167 165 165 167 168 169 169 167
224 222 228 241 256 263 262 250 234 227 238 256 256 235 113 75 64 101 141 134 119 142 193 195 198 205 212 216 209 197 187 181 174 168 165 165 163 161 159 157 157 157 158 158 157 155 154 154 156 158 159 159 158 157 158 160 161 162 163 163 162 160 159 159 160 162 163 163 161
217 215 219 230 242 251 251 238 223 215 226 232 202 166 141 122 123 129 124 110 101 108 134 160 166 173 180 185 176 166 158 154 150 147 146 147 146 146 146 146 146 146 147 147 147 147 148 149 151 154 157 160 159 159 159 159 158 158 157 156 154 154 153 153 153 153 152 151 149
214 210 210 218 222 221 222 238 244 225 208 205 187 166 149 140 138 132 122 110 103 102 109 121 135 143 149 152 149 143 138 134 131 130 131 132 133 134 137 139 141 142 142 143 145 147 149 151 154 158 162 164 163 162 161 159 157 154 152 150 148 147 146 145 143 139 136 133 130
212 207 204 208 214 217 223 238 244 222 199 189 178 163 150 144 142 137 130 123 115 109 110 118 129 133 136 138 136 134 130 127 125 123 123 124 124 127 132 137 141 143 143 146 150 154 156 158 160 164 167 166 164 161 159 156 153 150 146 144 142 140 139 136 131 126 122 119 118
210 205 203 208 215 222 225 228 223 206 189 177 167 158 150 146 144 142 137 131 124 121 123 129 133 134 134 134 133 132 130 129 126 124 122 122 123 126 133 140 144 145 145 148 153 160 164 165 164 165 165 164 160 157 154 151 148 145 142 139 137 135 132 129 124 120 117 116 115
208 206 206 208 211 214 213 208 197 188 178 169 162 155 151 147 146 144 141 136 132 131 135 138 139 138 137 136 135 134 132 130 128 127 126 125 127 132 137 142 144 145 146 148 153 160 165 168 167 164 162 159 156 152 149 147 145 142 140 138 136 133 130 127 124 122 121 119 118
206 204 203 201 199 198 194 189 183 177 171 166 160 155 151 150 150 150 148 144 141 141 143 143 142 141 140 138 136 134 130 127 126 126 126 128 132 136 140 142 143 144 144 145 151 157 161 164 165 163 160 156 152 148 145 143 142 141 140 138 137 134 131 129 127 127 127 127 127
202 200 197 193 189 185 183 181 176 173 168 164 160 156 154 154 155 155 152 149 146 146 147 146 143 141 139 138 134 130 126 123 122 122 123 125 127 129 131 133 134 135 136 139 145 150 155 160 162 162 159 155 152 148 144 141 141 141 140 138 137 136 135 133 133 133 133 134 133
198 195 192 187 183 180 180 178 174 170 167 164 160 157 157 158 158 156 153 150 149 149 147 146 144 141 138 134 129 125 122 119 118 117 117 117 117 117 116 117 117 121 126 133 139 145 151 157 160 160 158 155 151 148 145 142 141 140 139 137 137 137 137 137 138 138 137 135 132
195 192 188 183 178 177 176 174 171 168 165 162 160 159 160 162 160 157 154 150 148 146 143 141 141 138 133 128 124 121 119 117 117 116 115 113 111 110 110 110 110 114 121 131 137 143 149 154 157 158 157 155 151 148 145 143 141 139 138 137 137 138 138 139 139 138 136 134 132
192 188 183 178 175 173 172 171 168 164 160 157 157 158 160 162 161 157 153 148 144 141 139 138 136 132 128 125 122 120 118 118 118 117 115 113 111 110 110 111 112 116 122 128 135 140 146 150 153 155 155 154 150 147 143 141 139 138 137 137 137 137 137 137 136 135 134 134 134
189 185 181 177 174 171 169 167 163 158 153 151 150 152 155 157 155 153 149 145 140 138 138 137 133 130 127 125 123 121 120 120 120 118 115 114 113 112 113 113 115 118 122 127 131 137 142 146 149 150 151 149 146 143 140 138 137 137 136 136 136 136 135 135 134 133 133 136 139
186 184 181 176 172 168 165 162 157 153 149 145 142 141 143 146 147 146 144 142 140 138 137 136 133 130 129 128 126 125 124 123 120 119 118 118 116 116 115 115 116 119 123 127 131 136 140 143 144 145 145 144 142 140 138 137 136 136 135 134 133 133 132 132 132 133 136 141 145
185 183 180 175 169 165 162 159 155 152 147 141 135 134 136 140 142 142 141 140 140 139 138 137 134 132 131 131 130 129 127 125 124 124 124 124 123 120 118 117 119 121 125 128 132 136 139 141 142 143 143 142 140 139 138 137 136 134 132 131 130 130 131 132 134 137 141 146 151
184 182 178 173 168 164 161 159 157 153 148 142 137 135 138 141 142 141 141 141 142 142 141 139 137 135 134 133 133 132 130 130 130 131 131 130 128 125 122 121 123 125 128 130 133 136 139 141 142 143 142 141 140 139 137 136 133 131 130 129 130 132 134 136 139 142 146 150 153
184 180 176 172 169 166 163 162 160 158 153 147 142 141 143 146 146 145 144 145 146 145 143 142 140 138 137 137 138 137 134 133 133 133 134 133 130 126 123 123 125 128 130 132 135 138 141 143 144 143 142 141 139 138 135 133 131 130 130 132 134 137 140 142 144 147 149 151 153
187 182 178 175 172 170 167 165 164 162 158 153 150 149 149 150 151 151 151 152 150 147 144 142 142 142 142 142 143 143 141 137 136 136 137 136 132 127 125 125 128 130 133 136 137 140 143 145 144 143 141 140 138 135 133 132 132 133 135 137 139 142 144 147 148 149 151 152 153
191 188 183 178 175 172 170 169 168 165 162 159 157 155 155 155 155 156 157 157 153 148 146 145 146 146 146 146 146 147 148 147 144 142 141 139 135 131 129 129 132 134 136 138 140 143 144 143 141 140 139 138 136 135 135 135 137 138 140 141 142 144 146 148 149 151 152 153 153
193 192 188 182 177 175 174 173 171 168 166 163 161 161 160 159 158 159 160 160 156 151 149 150 151 150 150 150 149 148 150 152 151 148 145 143 140 137 134 134 137 138 140 141 142 143 141 139 138 138 137 137 137 138 139 141 142 143 143 143 143 144 145 146 148 149 150 151 151
193 194 191 186 181 178 176 176 174 171 168 165 164 163 162 161 160 161 163 163 160 156 154 154 153 153 153 152 149 146 145 148 151 151 148 147 145 143 141 139 139 141 144 144 144 142 140 138 137 137 138 138 140 142 143 144 144 144 143 143 142 142 143 143 145 146 146 145 144
189 191 191 189 184 181 179 177 175 173 171 168 165 164 163 163 163 163 165 165 162 160 158 157 155 155 156 155 153 149 147 148 152 153 151 150 151 150 148 144 142 143 146 148 147 145 142 141 141 141 141 142 144 145 146 145 143 142 141 141 141 141 141 142 143 143 141 139 137
184 188 190 191 188 184 181 177 175 174 173 170 168 166 166 166 165 166 166 165 163 161 160 158 158 159 160 161 161 160 159 158 158 158 158 158 158 158 157 153 149 148 150 151 150 148 147 145 145 144 144 145 146 147 146 144 141 139 138 138 139 141 142 143 144 144 141 138 135